Regional Weather Roundup
Issued by NWS

Home | Current Version | Previous Version | Text Only | Print | Product List | Glossary On
Versions: 1 2 3 4 5 6 7 8 9 10 11 12 13 14 15 16 17 18 19 20 21 22 23 24 25 26 27 28 29 30 31 32 33 34 35 36 37 38 39 40 41 42 43 44 45 46 47 48 49 50
000
ASUS43 KMKX 020910
RWRWI

WISCONSIN REGIONAL WEATHER ROUNDUP
NATIONAL WEATHER SERVICE MILWAUKEE/SULLIVAN WI
300 AM CST MON MAR 02 2015

NOTE: "FAIR" INDICATES FEW OR NO CLOUDS BELOW 12,000 FEET WITH NO
SIGNIFICANT WEATHER AND/OR OBSTRUCTIONS TO VISIBILITY.

WIZ001-002-006>008-014>016-023>028-021000-
NORTHWEST WISCONSIN

CITY           SKY/WX    TMP DP  RH WIND       PRES   REMARKS
SUPERIOR ARPT  CLEAR     10   4  79 SW7       30.40R WCI  -1
ASHLAND        CLEAR     11   4  73 W7        30.36R WCI   0
HAYWARD        CLEAR      6   1  80 CALM      30.35R
SIREN          CLEAR      7   3  84 W5        30.41S WCI  -2
CUMBERLAND     CLEAR      9   3  78 W6        30.37F WCI  -1
RICE LAKE      CLEAR     11   5  76 W5        30.41S WCI   3
CHETEK         CLEAR     11   5  77 CALM      30.39S
LADYSMITH      CLEAR     13   7  76 NW8       30.37R WCI   2
EAU CLAIRE     CLEAR     15   5  64 N6        30.40R WCI   6
MENOMONIE      CLEAR     16   8  69 NW10      30.41S WCI   4
NEW RICHMOND   CLEAR     10   5  79 NW6       30.42F WCI   0
OSCEOLA        CLEAR     11   6  79 W6        30.45F WCI   2
$$

WIZ003>005-009-010-017-018-021000-
NORTH CENTRAL WISCONSIN

CITY           SKY/WX    TMP DP  RH WIND       PRES   REMARKS
MANITOWISH WTR CLOUDY    13   5  70 NW14      30.24S WCI  -2
ARBOR VITAE    MOCLDY    17   6  63 NW7       30.25R WCI   7
WOODRUFF       MOCLDY    17   6  63 NW7       30.25R WCI   7
RHINELANDER    CLOUDY    14   3  61 W9        30.25R WCI   2
EAGLE RIVER    FAIR      13   5  69 NW8       30.22S WCI   2
LAND O LAKES   LGT SNOW  14  10  84 NW6       30.22S WCI   5
PHILLIPS       CLEAR     12   4  70 NW8       30.29R WCI   0
TOMAHAWK       CLOUDY    14   9  81 NW9       30.28R WCI   2
MEDFORD        CLEAR     12   6  77 W10G16    30.30S WCI  -2
MERRILL        FLURRIES  11   6  81 W5        30.29R WCI   3
$$

WIZ029-030-035-036-043>047-021000-
CENTRAL WISCONSIN

CITY           SKY/WX    TMP DP  RH WIND       PRES   REMARKS
WAUSAU         CLEAR     11   5  77 W7        30.29R WCI   0
MOSINEE        CLEAR     12   9  85 W10       30.31R WCI  -1
MARSHFIELD     CLEAR     14   6  70 W12       30.33R WCI   0
STEVENS POINT  CLEAR     13   6  73 W8        30.33R WCI   2
WAUPACA        CLEAR     17   8  69 W6        30.35R WCI   8
WAUTOMA        CLEAR     15   8  73 W8        30.37R WCI   4
WISC RAPIDS    CLEAR     13   6  74 W5        30.37R WCI   5
CAMP DOUGLAS   CLEAR     11  10  97 W9        30.38R WCI  -2
$$

WIZ011>013-019>022-031-037>040-048>050-021000-
NORTHEAST WISCONSIN

CITY           SKY/WX    TMP DP  RH WIND       PRES   REMARKS
ANTIGO         MOCLDY    11   6  81 W10       30.25R WCI  -2
SHAWANO        CLEAR     17   8  65 W3        30.32R
OCONTO         CLEAR     13   5  72 W6        30.30S WCI   3
STURGEON BAY   CLEAR     16   5  62 W10       30.30R WCI   3
GREEN BAY      CLEAR     16   8  71 W10       30.32R WCI   4
MANITOWOC      CLEAR     17  10  74 W12       30.32R WCI   4
APPLETON       CLEAR     14   5  67 W8        30.33R WCI   3
CLINTONVILLE   CLEAR     16   7  67 W6        30.32R WCI   7
OSHKOSH        CLEAR     14   6  70 W6        30.35R WCI   5
$$

WIZ032>034-041-042-053>061-021000-
SOUTHWEST WISCONSIN

CITY           SKY/WX    TMP DP  RH WIND       PRES   REMARKS
LA CROSSE      CLOUDY    16  11  80 CALM      30.42S
SPARTA         CLEAR     13   9  83 W3        30.40F
VIROQUA        MOCLDY    14  11  89 SW5       30.37R WCI   6
BOSCOBEL       CLEAR      6   2  83 CALM      30.43S
PRAIRIE DU CHI CLEAR     13   8  82 CALM      30.44S
PLATTEVILLE    PTCLDY    10   7  89 SW6       30.41R WCI   0
$$

WIZ056-057-062-063-064-067-068-021000-
SOUTH CENTRAL WISCONSIN

CITY           SKY/WX    TMP DP  RH WIND       PRES   REMARKS
REEDSBURG      CLEAR     14   9  79 NW3       30.39R
BARABOO/DELLS  CLEAR     15   9  76 W6        30.37S WCI   6
LONE ROCK      CLEAR     15   8  73 W8        30.41S WCI   4
MINERAL POINT  CLEAR     12   9  85 W3        30.38R
MADISON        CLEAR     14   7  73 CALM      30.39R
MIDDLETON      CLEAR      8   3  80 W6        30.39S WCI  -2
WATERTOWN      CLEAR      8   4  83 CALM      30.37S
MONROE         CLEAR     14  10  85 W12       30.38S WCI   0
JANESVILLE     CLEAR     14   9  79 W3        30.40R
$$

WIZ051-052-058>065-066-070>072-021000-
SOUTHEAST WISCONSIN

CITY           SKY/WX    TMP DP  RH WIND       PRES   REMARKS
MILWAUKEE      FAIR      17   6  62 W7        30.38R WCI   8
WAUKESHA       CLEAR     14   9  79 W9        30.36F WCI   2
MILWAUKEE/TIMM CLEAR     16   7  67 W5        30.37S WCI   9
RACINE         CLEAR     16   6  65 W5        30.40R WCI   9
BURLINGTON     CLEAR     11   5  76 W3        30.38S
KENOSHA        CLEAR     14   6  70 W9        30.38R WCI   2
FOND DU LAC    CLEAR     14   6  70 W7        30.35R WCI   4
SHEBOYGAN      CLEAR     16   7  67 W8        30.34R WCI   5
WEST BEND      CLEAR     18   9  68 W10       30.34S WCI   6
JUNEAU         CLEAR      9   4  82 SW5       30.37S WCI   1
$$

LSZ147-162-021000-
LAKE SUPERIOR

STATION/POSITION TIME  TEMP    WIND        PRES    WAVE
                       AIR SEA DIR/SP/G            HT/PER
                 (UTC) (F)     (DEG/KT/KT) (MB)    (FT/S)
DEVILS ISLAND    0900   18     270/ 13/ 15 1028.8R
PORT WING        0840   17     280/ 13/ 18 1028.4R
SAXON HARBOR     0800   18     270/  7/ 12 1027.4
$$

LMZ867-665-643>646-021000-
LAKE MICHIGAN

STATION/POSITION TIME  TEMP    WIND        PRES    WAVE
                       AIR SEA DIR/SP/G            HT/PER
                 (UTC) (F)     (DEG/KT/KT) (MB)    (FT/S)
NORTHPORT PIER   0804   17     270/  8/ 16 1024.4R
KEWAUNEE LAKESHO 0800   18     290/  7/ 11 1024.8R
SHEBOYGAN LAKESH 0900   19     270/ 10/ 12 1028.8R
PORT WASHINGTON  0840   18     270/  4/  9 1028.8R
MILWAUKEE LAKESH 0800   21     280/ 10/ 13   N/A
KENOSHA   LAKESH 0900   17     270/  8/ 12 1028.8R
$$

TC  - TEMPERATURE IN CELSIUS
VSB - VISIBILITY IN STATUTE MILES
WCI - WIND CHILL INDEX
HX  - HEAT INDEX



USA.gov is the U.S. government's official web portal to all federal, state and local government web resources and services.